Regional Weather Roundup
Issued by NWS

Home | Current Version | Previous Version | Text Only | Print | Product List | Glossary Off
Versions: 1 2 3 4 5 6 7 8 9 10 11 12 13 14 15 16 17 18 19 20 21 22 23 24 25 26 27 28 29 30 31 32 33 34 35 36 37 38 39 40 41 42 43 44 45 46 47 48 49 50

204
ASUS45 KBOU 262307
RWRCO

WEATHER ROUNDUP FOR COLORADO
NATIONAL WEATHER SERVICE DENVER/BOULDER CO
400 PM MST SUN FEB 26 2017

NOTE: "FAIR" INDICATES FEW OR NO CLOUDS BELOW 12000 FEET WITH NO
SIGNIFICANT WEATHER AND/OR OBSTRUCTIONS TO VISIBILITY.

COZ001>005-013-030-031-270000-
...NORTHWEST COLORADO...

CITY           SKY/WX    TMP DP  RH WIND       PRES   REMARKS
CRAIG          PTSUNNY   30   6  36 NW9       29.80F WCI  22
HAYDEN         FAIR      28   3  34 W17       29.79F WCI  16
MEEKER         FAIR      33   4  29 SW18      29.80F WCI  22
MOUNT WERNER   NOT AVBL
STEAMBOAT SPGS FAIR      26   0  32 CALM      29.80S
WALDEN         NOT AVBL
$$

COZ006>008-011-270000-
...WEST CENTRAL VALLEYS...

CITY           SKY/WX    TMP DP  RH WIND       PRES   REMARKS
GRAND JUNCTION FAIR      41   7  24 CALM      29.84F
MONTROSE       CLOUDY    40   5  23 NE5       29.86F
EAGLE          MOSUNNY   34   3  27 SW16G22   29.82F WCI  23
RIFLE          FAIR      38   4  24 W14       29.82F
DELTA          FAIR      43   6  21 CALM      29.85F
NUCLA          CLOUDY    36  10  35 CALM      29.89S
$$

COZ017>023-064>068-270000-
...SOUTHWEST COLORADO...

CITY           SKY/WX    TMP DP  RH WIND       PRES   REMARKS
DURANGO        FAIR      37   8  30 W20       29.86R
CORTEZ         FAIR      40  10  29 W7        29.87S
PAGOSA SPRINGS CLOUDY    35   4  27 SW10G23   29.84R WCI  27
TELLURIDE      FAIR      26   6  44 W7        29.84S WCI  18
WOLF CREEK PAS CLOUDY    10   3  72 SW21G26   29.82R HAZE    WCI  -9
$$

COZ009-010-012-014-032>034-037-058>063-270000-
...CENTRAL COLORADO...

CITY           SKY/WX    TMP DP  RH WIND       PRES   REMARKS
ASPEN          FAIR      27   1  32 S9        29.79F WCI  18
BUENA VISTA    FAIR      30  -1  26 W22       29.78R WCI  17
COPPER MTN     NOT AVBL
BERTHOUD PASS  FAIR       3  -8  60 MISG      29.64S
COTTONWOOD PAS FAIR      25   0  33 W8G21     29.74R WCI  16
GUNNISON       FAIR      24   8  50 CALM      29.85S
KREMMLING      FAIR      34   1  25 SW14G26   29.78S WCI  24
LEADVILLE      FAIR      16  -6  37 W13G22    29.74S WCI   2
MONARCH PASS     N/A      7   3  85 W37G49    29.82S WCI -19
SALIDA         FAIR      33  -2  22 W21G29    29.87R WCI  22
SUNLIGHT       NOT AVBL
WILKERSON PASS FAIR      19 -11  25 W10G16    29.73R WCI   8
$$

COZ069>075-270000-
...SAN LUIS VALLEY/SANGRE DE CRISTO MOUNTAINS...

CITY           SKY/WX    TMP DP  RH WIND       PRES   REMARKS
ALAMOSA        CLOUDY    35   4  27 NW12      29.79R WCI  27
LA VETA PASS   FAIR      27   3  36 SW22G38   29.74S WCI  12
SAGUACHE       FAIR      32   1  27 NW16G26   29.81R WCI  21
$$

COZ035-036-038>040-270000-
...NORTHERN COLORADO FRONT RANGE...

CITY           SKY/WX    TMP DP  RH WIND       PRES   REMARKS
DENVER INTL AP FAIR      42  -3  15 N3        29.74S
DMNS CITY PARK   N/A     42  -5  13 NE8G18    29.73S
AURORA         MOSUNNY   41  -6  13 E3        29.74S
FRONT RANGE AP NOT AVBL
ERIE MUNI ARPT FAIR      42  -5  13 NE3       29.73S
BOULDER MUN AP FAIR      43   1  17 W7        29.73R
CENTENNIAL     FAIR      40  -7  13 E5        29.73S
BROOMFIELD     MOSUNNY   41   0  17 NW6       29.73S
FORT COLLINS   FAIR      41   4  21 S8        29.75S
LONGMONT       FAIR      44   0  16 W12G21    29.76R
$$

COZ041-046-047-076>085-087-088-270000-
...PIKES PEAK/PALMER DIVIDE AND SOUTHERN FOOTHILLS...

CITY           SKY/WX    TMP DP  RH WIND       PRES   REMARKS
COLO. SPRINGS  FAIR      43 -13   9 S13       29.73R
A. F. ACADEMY  FAIR      41 -14   9 W14G21    29.70R
SCHRIEVER AFB  FAIR      41 -12  10 SW6       29.73S
ELLICOTT       NOT AVBL
FALCON         FAIR      40 -12  11 S10G17    29.73R
FORT CARSON    FAIR      45 -14   8 W10       29.72R
LIMON          FAIR      40  -4  15 S9        29.76S
MONUMENT HILL  FAIR      34  -2  21 E5        29.73S WCI  30
TRINIDAD       CLOUDY    48  -1  13 NW17G24   29.75R
$$

COZ042>045-048>051-090-091-270000-
...NORTHEAST COLORADO...

CITY           SKY/WX    TMP DP  RH WIND       PRES   REMARKS
GREELEY ARPT   FAIR      43   1  17 SE5       29.77S
AKRON          FAIR      42   6  22 S13       29.78S
BURLINGTON     FAIR      45   7  21 SE13      29.82R
WRAY           NOT AVBL
STERLING       FAIR      36  21  55 NE8       29.80F
HOLYOKE        FAIR      43  14  31 S5        29.85S
FORT MORGAN    FAIR      41   2  20 CALM      29.78F
$$

COZ086-089-092>099-270000-
...SOUTHEAST COLORADO...

CITY           SKY/WX    TMP DP  RH WIND       PRES   REMARKS
PUEBLO         FAIR      50  -8   9 NW18      29.73S
LA JUNTA       FAIR      50   6  16 E6        29.78R
LAMAR          FAIR      50   6  16 SE13      29.78S
SPRINGFIELD      N/A     46   4  17 E15       29.78R
$$




USA.gov is the U.S. government's official web portal to all federal, state and local government web resources and services.